vendredi 11 Août 17
20 : 00

Course sur route de 1o km, soit 2 boucle de 4,7 km avec un départ excentré. L’inscription est de 6 €, 1€ étant reversé à la ligue contre le cancer.
Il n’y a ni lot ni récompense, par contre un repas champêtre est offert aux participants.

challenge => MLK route 2017, CDCHS 2017

courses enfants => oui

remises des prix => 0 au scratch – 0 par catégorie

pratique => parking, vestiaires, toilettes, douches, repas possible sur place, buvette






Informations :

ClDosNomVoirTempsS.Cat.CC.Club-
12847JUMELLE Fabien00:35:44 MSE1
22821CESSAT Patrice00:37:37 MV11
32818RUPAGE Roland00:39:24 MV12
42813NOYE Alexandre00:39:33 MSE2
52837GUBERT Julien00:40:01 MSE3
62809FAURIE Jean00:40:41 MSE4
72820TUEL Dominique00:40:41 MSE5
82823DONZEAU Pierre00:41:22 MSE6
92816LAURENCOU Christophe00:41:33 MV13
102807CLOS Mateo00:41:38 MCA1
112842COMTE Kevin00:42:13 MSE7
122811ZANETTI Patrick00:42:28 MV21
132822DOUHERET Arnaud00:42:49 MV14
142830GAPS Christophe00:42:56 MV15
152801DEWAR Barry00:44:20 MV31
162825DRAGO Salvatore00:44:56 MV32
172832SERRAGER Fabien00:45:09 MSE8
182802LELU Robert00:45:45 MV33
192827ROBERT Paul00:47:36 MSE9
202806SALAVERT Frederic00:47:50 MV16
212844LABONNE Stanislas00:47:57 MSE10
222850BOISSIERE Alexandre00:48:28 MSE11
232840PICART Jean jacques00:48:51 MV17
242839RAYNAUD Marie laure00:48:51 FV11
252817JONCKHFERE Patrick00:49:00 MV34
262819BRUNIE Philippe00:49:34 MV18
272831NAVAU Bertrand00:49:38 MV19
282805BERNICAL Francis00:50:11 MV35
292826MENAGER Christophe00:51:25 MV22
302843LATOUR Emmanuel00:51:26 MSE12
312824MAISONNEUVE Alain00:51:28 MV23
322833LACAVE Regis00:51:30 MV24
332815BOCK Denis00:52:58 MV36
342835MARTY Patrice00:53:03 MV110
352814DOROTYN Walter00:53:35 MV111
362803BONNET Jean00:53:45 MV41
372838PIERES Alain00:54:28 MV37
382841SALVAN Marie00:54:45 FSE1
392828TONEL Sebastien00:55:26 MSE13
402853DESHORS Bruno00:56:00 MSE14
412834VILAIN Regis00:56:11 MV25
422810CHASTRUSSE Andre00:56:29 MV38
432829TOURRET Pierre jean00:58:10 MSE15
442808PLIOT Marc00:58:34 MV39
452804GOUYON Philippe00:59:21 MV310
462851DESHORS Sylvia01:02:32 FSE2
472845LABONNE Paul01:06:28 MSE16
482849CHAUMEIL Olivier01:06:40 MV112
492836PELISSIER Serge01:07:04 MV26
502846LABONNE Arnaud01:07:16 MCA2
512852LEVET Celine01:11:22 FSE3
522812MARIONNET Bruno01:13:57 MV113

(Cliquer sur les points rouge de la carte pour avoir des informations sur le parcours) offert par Guy

Dénivellé
Vitesse


4 Comments.

  • Pliot marc says:

    Bonjour
    Merci à Jean Pierre, Stéphane et les autres bénévoles pour l’organisation de cette course sympathique ou règne une atmosphère conviviale. Un tarif d’inscription de 6,00 € dont un 1,00 € reversé à la ligue contre le cancer, avec un repas au final, vous détenez sans doute le record pour la Corrèze. Souhaitons que vous ayez un peu plus de concurrents l’an prochain, vous méritez mieux que 53 participants.
    Marc

  • Bruno says:

    Bonjour peut on me reclasser a Marionnet Bruno merci et non Marionnet Brunot pour le reste tout était très bien je reviendrai

  • kévin says:

    Juste un seul mot à dire : Convivialité.
    Un grand Merci aux organisateurs de cette course malgré le temps qui a dû en dissuader certains.
    Reviens l’année prochaine pour une quatrième fois sans hésiter !!!

    • bertrand Navau says:

      Je serais présent l’année prochaine. Course très conviviale et parcourt comme on les aime. Et tout ça malgré les frites immangeables



Laisser un commentaire